Weather History for Liberia, Costa Rica

Change the Weather History Date:

Thursday, September 13, 2012

  Actual Average Record
Temperature  
Mean Temperature 80 °F -  
Max Temperature 90 °F 85 °F 95 °F (2001)
Min Temperature 69 °F 73 °F 69 °F (2006)
Cooling Degree Days 14    
Growing Degree Days 30 (Base 50)    
Moisture  
Dew Point 70 °F    
Average Humidity 70    
Maximum Humidity 83    
Minimum Humidity 47    
Precipitation  
Precipitation 0.00 in - - ()
Sea Level Pressure  
Sea Level Pressure 29.83 in    
Wind  
Wind Speed 5 mph ()    
Max Wind Speed 13 mph    
Max Gust Speed -    
Visibility 7.7 miles    
Events Thunderstorm    
Averages and records for this station are not official NWS values.
T = Trace of Precipitation, MM = Missing Value Source: Averaged Metar Reports

Daily Weather History Graph

Daily Weather History Graph

Search for Another Location

Airport:

Trip Planner

Search our weather history database for the weather conditions in past years. The results will help you decide how hot, cold, wet, or windy it might be!

Date:

Astronomy

Sep. 13, 2012 Rise Set
Actual Time 5:31 AM CST 5:43 PM CST
Civil Twilight 5:10 AM CST 6:04 PM CST
Nautical Twilight 4:46 AM CST 6:29 PM CST
Astronomical Twilight 4:21 AM CST 6:53 PM CST
Moon 3:11 AM CST (9/13) 3:51 PM CST (9/13)
Length of Visible Light 12h 53m
Length of Day
12h 11m
Waning Crescent, 7% of the Moon is Illuminated
Sep 13
Waning Crescent
Sep 15
New
Sep 22
First Quarter
Sep 29
Full
Oct 8
Last Quarter

Hourly Weather History & Observations

Time (CST) Temp. Heat Index Dew Point Humidity Pressure Visibility Wind Dir Wind Speed Gust Speed Precip Events Conditions
6:00 AM 71 °F - 67 °F 83% 29.83 in 12 mi SSW 4.6 mph - -   Scattered Clouds
6:00 AM 71.6 °F - 66.2 °F 83% 29.81 in 6.2 mi SSW 4.6 mph - N/A   Mostly Cloudy
7:00 AM 73.4 °F - 68.0 °F 83% 29.83 in 6.2 mi SW 4.6 mph - N/A   Mostly Cloudy
8:00 AM 77.0 °F - 71.6 °F 83% 29.86 in 6.2 mi South 3.5 mph - N/A   Mostly Cloudy
9:00 AM 80 °F - 72 °F 71% 29.90 in 12 mi ENE 4.6 mph - -   Overcast
9:00 AM 80.6 °F 84.6 °F 71.6 °F 74% 29.88 in 6.2 mi ENE 4.6 mph - N/A   Mostly Cloudy
10:00 AM 82.4 °F 88.2 °F 73.4 °F 74% 29.88 in 6.2 mi WSW 4.6 mph - N/A   Mostly Cloudy
11:00 AM 86.0 °F 93.4 °F 73.4 °F 66% 29.87 in 6.2 mi SW 3.5 mph - N/A   Mostly Cloudy
12:00 PM 89 °F - 71 °F 47% 29.85 in 12 mi East 9.2 mph - -   Overcast
12:00 PM 89.6 °F 96.2 °F 71.6 °F 55% 29.84 in 6.2 mi East 9.2 mph - N/A   Mostly Cloudy
1:00 PM 89.6 °F 94.7 °F 69.8 °F 52% 29.81 in 6.2 mi ENE 10.4 mph - N/A   Mostly Cloudy
2:00 PM 86.0 °F 90.4 °F 69.8 °F 58% 29.80 in 6.2 mi East 12.7 mph - N/A Thunderstorm Mostly Cloudy
3:00 PM 83 °F - 69 °F 55% 29.81 in 12 mi East 9.2 mph - -   Overcast
3:00 PM 82.4 °F 86.3 °F 69.8 °F 66% 29.80 in 6.2 mi East 9.2 mph - N/A   Mostly Cloudy
4:00 PM 80.6 °F 83.9 °F 69.8 °F 70% 29.78 in 6.2 mi ESE 9.2 mph - N/A   Overcast
5:00 PM 80.6 °F 83.9 °F 69.8 °F 70% 29.80 in 6.2 mi ESE 8.1 mph - N/A   Overcast
6:00 PM 79 °F - 70 °F 67% 29.83 in 12 mi ESE 5.8 mph - -   Overcast
6:00 PM 78.8 °F - 69.8 °F 74% 29.81 in 6.2 mi ESE 5.8 mph - N/A   Overcast
7:00 PM 77.0 °F - 69.8 °F 78% 29.82 in 6.2 mi SE 5.8 mph - N/A   Overcast
8:00 PM 77.0 °F - 71.6 °F 83% 29.83 in 6.2 mi South 5.8 mph - N/A   Overcast